Wind_Speed
61 61 66 62 62 61 58 54 57 57 54 54 56 59 58 58 54 52 50 49 45 42 47 48 45 36 34 31 28 32 36 36 36 35 35 37 29 26 32 37 39 38 40 41
64 64 65 62 62 61 60 59 58 58 57 56 56 60 62 58 55 53 52 50 48 48 49 45 33 33 34 31 28 29 33 34 34 36 36 32 31 37 42 40 40 39 39 40
65 63 64 63 63 63 61 62 60 61 60 58 58 59 60 56 55 53 51 49 45 39 35 36 36 33 33 30 27 30 32 33 34 36 34 34 38 40 45 43 39 37 39 41
61 63 64 62 61 62 61 61 58 58 57 57 57 56 57 54 52 52 48 47 40 34 37 38 36 32 31 28 29 32 35 33 35 35 33 37 42 44 42 40 38 39 42 45
49 52 55 58 62 63 63 63 61 59 57 56 59 55 55 55 52 50 46 43 42 40 33 30 30 30 29 28 30 33 35 36 37 36 37 41 40 39 38 39 39 42 41 44
44 45 45 47 50 52 55 59 60 60 58 55 55 53 56 54 51 48 44 40 36 33 26 24 28 26 29 29 31 34 35 35 35 37 38 37 40 38 40 38 38 39 43 44
50 48 46 45 46 47 48 51 50 51 54 53 50 48 51 51 50 48 45 43 37 32 32 34 32 29 29 29 32 34 36 35 36 37 35 37 40 38 38 37 38 40 44 45
53 51 53 51 49 47 44 46 47 46 49 49 47 47 49 48 46 47 45 43 42 36 35 35 31 29 30 31 34 34 35 35 36 36 37 39 38 37 38 39 40 42 45 44
56 56 55 53 52 50 48 49 49 46 45 44 45 47 49 45 44 44 43 42 39 35 33 33 30 31 32 34 33 32 33 35 36 38 37 36 36 36 38 42 42 43 43 44
50 53 54 56 55 54 52 50 50 47 42 40 42 48 47 44 42 41 40 39 36 34 33 32 33 34 33 31 30 29 32 35 36 35 35 34 33 36 41 44 44 43 42 46
52 51 49 54 53 54 53 50 50 49 42 42 43 46 46 44 40 36 36 34 32 33 33 32 30 30 28 27 27 28 32 33 31 32 33 32 33 38 43 43 42 42 44 48
54 53 49 49 51 54 52 50 52 50 49 44 41 43 46 43 38 34 34 31 30 30 28 27 28 28 28 27 30 32 31 30 31 31 29 31 37 40 39 39 40 44 46 47
61 55 56 53 53 55 56 56 56 52 50 42 41 42 46 42 38 35 32 30 30 30 29 29 29 29 31 30 31 29 30 30 29 27 30 35 35 35 35 38 40 44 44 44
66 63 60 58 56 60 60 58 58 55 49 45 40 43 48 46 39 34 32 31 31 31 31 31 32 32 33 31 31 30 31 31 29 30 32 31 31 32 35 38 41 42 43 45
73 68 67 63 61 62 63 60 59 57 52 47 42 45 52 47 41 37 34 31 33 34 34 34 33 33 34 33 30 29 31 32 32 32 32 31 30 33 36 39 40 44 47 46
76 72 70 68 67 66 66 63 60 57 53 49 46 44 55 47 41 44 37 33 34 36 37 38 37 35 37 33 28 29 33 34 35 34 31 32 33 34 38 40 44 47 49 48
79 76 74 70 71 72 66 64 62 59 57 54 49 48 51 48 46 44 41 38 36 40 40 38 37 34 31 28 24 28 30 30 33 30 33 35 35 38 40 42 45 46 45 48
83 82 81 75 74 73 62 65 64 63 61 60 55 52 49 50 48 46 47 43 38 39 40 39 36 31 29 28 27 29 29 30 32 33 35 37 39 40 40 40 38 41 46 48
84 83 80 76 72 70 65 65 66 66 62 63 58 56 51 49 51 50 49 44 43 43 40 38 37 34 33 33 32 30 32 33 34 35 37 39 38 35 38 38 40 44 49 51
81 80 76 71 70 71 68 69 68 69 63 65 65 62 54 50 50 58 52 45 48 48 44 41 39 39 37 36 35 35 35 35 36 37 38 37 36 37 39 40 42 45 48 52
82 80 76 71 72 71 72 72 72 72 66 71 71 66 58 52 49 57 56 51 50 51 47 45 43 43 41 38 38 38 37 37 38 38 38 37 38 39 40 42 45 49 51 54
79 76 74 73 72 69 73 76 76 71 73 72 71 68 62 56 52 55 59 56 53 51 51 48 47 46 45 43 41 41 41 41 40 39 40 39 40 41 42 44 47 51 53 56
77 75 70 70 69 71 75 76 78 78 78 74 73 71 67 62 57 54 58 62 59 54 53 51 49 49 49 48 45 44 44 43 42 42 42 43 43 42 44 46 49 53 55 59
74 73 69 67 68 72 74 79 77 77 81 78 75 74 71 66 61 56 55 60 64 61 57 54 53 51 51 50 49 48 47 45 45 46 46 47 47 47 48 50 51 53 57 59
73 66 70 64 69 70 75 79 77 79 79 79 78 75 74 71 67 61 58 57 63 66 63 59 58 55 54 53 52 51 50 49 49 49 49 50 51 51 52 52 53 56 59 63
69 69 72 70 69 64 71 73 79 80 81 81 80 78 76 73 70 66 63 60 59 65 67 64 62 60 58 57 56 54 53 53 53 52 52 53 53 54 54 54 55 57 62 64
Wind_Direction
265 266 266 270 269 269 268 267 271 275 276 274 275 275 277 282 281 282 282 283 284 282 287 288 290 291 289 283 281 279 283 289 294 293 299 304 296 292 297 306 304 301 304 306
258 259 263 264 264 266 266 266 268 270 272 272 272 274 278 280 280 279 280 281 284 287 287 288 288 288 283 279 280 283 285 288 292 293 301 302 292 296 300 304 305 306 305 303
258 261 261 261 263 263 264 266 268 268 269 268 273 276 277 280 281 282 284 287 290 290 289 288 289 286 275 277 282 288 290 292 294 296 304 300 294 298 301 307 307 303 300 301
262 261 262 262 263 264 266 267 268 270 271 272 272 273 278 279 279 279 283 287 287 281 285 287 288 282 276 278 285 290 293 297 295 301 302 297 294 298 303 306 305 302 302 306
264 266 265 265 265 265 267 267 266 267 270 272 272 274 275 274 274 276 279 282 285 286 284 280 281 281 280 278 286 290 294 297 299 300 295 295 300 304 302 303 302 303 310 314
268 269 270 270 270 268 266 267 267 268 268 269 272 272 272 276 278 278 278 278 278 279 274 274 281 284 279 279 287 290 294 294 292 294 294 295 300 297 299 303 306 308 310 309
268 270 272 274 274 272 271 272 272 272 269 269 272 273 273 277 277 278 278 277 276 272 272 273 284 285 279 277 283 289 294 291 292 292 293 293 297 297 299 307 308 309 307 309
271 271 270 271 273 275 277 276 273 272 272 269 271 273 275 275 277 277 277 277 279 278 276 278 279 276 275 278 282 282 286 286 290 292 293 294 296 296 301 307 309 306 308 311
270 271 272 272 272 273 274 275 275 273 272 273 271 271 272 274 274 275 276 276 276 273 274 275 275 274 274 276 276 279 281 284 289 293 292 293 292 299 303 308 306 306 308 312
271 270 270 269 269 269 271 273 274 274 271 269 265 266 270 273 275 276 275 275 274 273 272 272 272 272 273 275 277 279 283 289 293 290 289 291 298 299 302 303 303 305 309 311
272 271 271 270 268 266 269 270 269 270 272 267 262 263 268 271 273 270 270 271 269 270 268 269 269 272 273 273 275 278 286 292 290 289 289 293 294 294 298 300 302 306 310 310
275 271 272 270 271 266 266 268 268 268 267 272 266 260 262 268 269 266 267 267 267 265 264 266 269 271 274 278 283 286 290 292 289 289 289 287 286 292 296 301 305 309 310 312
274 276 268 272 269 268 266 263 264 265 267 270 268 255 258 261 261 261 264 265 263 261 260 266 267 268 275 281 285 290 293 293 292 287 279 282 289 294 299 304 307 307 310 311
272 275 271 271 269 264 265 263 263 264 264 263 263 251 253 257 256 257 260 260 260 262 265 270 274 276 278 283 287 285 287 286 284 281 285 288 295 297 302 303 306 308 309 313
273 272 273 271 268 267 260 260 260 262 261 262 260 253 253 255 255 253 253 257 256 256 259 263 267 270 272 275 278 280 283 283 282 286 287 291 292 297 299 303 305 307 310 315
272 271 272 270 268 266 257 255 257 259 259 258 257 255 250 251 250 251 249 250 252 255 257 260 265 268 270 271 275 279 282 280 282 284 284 288 293 295 297 302 305 308 312 315
270 270 268 267 268 263 254 255 255 253 256 255 254 254 255 249 248 251 251 246 248 252 255 260 264 265 267 268 273 279 280 279 280 278 283 290 294 296 299 302 305 310 312 315
269 269 269 267 265 258 249 247 251 252 252 254 253 252 252 248 245 247 249 246 246 251 254 257 259 256 259 263 267 273 276 277 280 284 288 291 293 296 299 302 306 308 314 316
267 266 265 262 259 253 245 243 244 248 249 253 253 254 251 246 242 244 246 247 246 248 251 253 253 251 257 260 263 268 272 277 281 287 289 292 293 295 300 302 306 308 309 312
264 261 261 256 255 249 243 242 242 244 244 251 251 250 251 248 240 241 242 242 244 245 246 250 250 252 254 259 263 265 269 276 281 283 285 287 290 293 299 303 305 308 313 318
263 258 257 253 251 247 242 239 238 240 240 245 248 249 249 247 244 241 240 239 242 245 243 245 248 252 254 258 262 266 268 272 276 279 281 283 289 294 299 301 303 306 310 316
258 256 256 251 247 242 241 240 236 238 239 243 247 249 251 251 247 243 241 240 240 243 243 243 245 249 253 258 262 265 268 271 274 278 278 279 286 292 296 299 300 303 309 313
256 256 254 250 248 240 235 237 239 236 235 239 243 245 248 249 249 247 243 239 241 241 243 243 244 246 251 256 261 264 267 272 273 276 278 279 284 290 296 298 299 303 308 313
253 252 251 249 247 243 238 234 235 235 234 234 239 243 245 248 249 248 246 242 240 241 243 244 246 248 249 254 259 264 267 271 273 275 277 278 280 287 291 295 298 302 309 313
252 249 249 246 247 244 240 233 230 231 233 234 236 241 243 243 246 248 248 245 241 241 242 245 247 249 251 254 258 261 264 268 271 274 277 279 280 286 291 296 298 304 308 312
249 247 244 241 242 241 243 239 233 230 230 232 234 236 240 243 244 246 247 246 245 242 242 243 246 249 251 253 255 258 262 267 270 272 276 279 280 285 291 296 298 302 307 310
Height
10776 10777 10771 10780 10779 10780 10782 10784 10780 10782 10785 10784 10781 10777 10779 10780 10775 10771 10769 10770 10769 10767 10765 10762 10761 10759 10757 10755 10753 10751 10750 10747 10746 10744 10742 10739 10735 10731 10728 10725 10722 10718 10714 10710
10762 10762 10762 10765 10764 10765 10767 10769 10769 10770 10772 10772 10770 10766 10765 10765 10765 10760 10758 10759 10760 10758 10753 10754 10753 10751 10748 10747 10745 10743 10741 10739 10738 10736 10734 10733 10728 10724 10720 10717 10714 10710 10706 10701
10747 10749 10749 10749 10751 10751 10752 10753 10758 10758 10759 10760 10759 10756 10755 10755 10752 10750 10748 10749 10748 10748 10744 10743 10743 10742 10740 10739 10737 10735 10733 10731 10730 10728 10727 10724 10721 10716 10713 10709 10705 10702 10697 10693
10734 10732 10735 10739 10738 10736 10738 10742 10744 10745 10746 10746 10746 10748 10743 10744 10743 10738 10740 10739 10739 10740 10738 10734 10734 10733 10732 10731 10729 10727 10725 10724 10721 10720 10719 10717 10712 10708 10704 10701 10697 10693 10689 10684
10720 10721 10723 10725 10724 10728 10726 10728 10731 10732 10734 10733 10730 10737 10732 10728 10732 10732 10732 10730 10729 10729 10730 10727 10726 10726 10725 10723 10721 10719 10717 10716 10714 10713 10712 10709 10704 10700 10696 10693 10689 10685 10681 10675
10708 10709 10712 10713 10713 10716 10716 10714 10718 10721 10721 10721 10719 10723 10715 10719 10721 10722 10723 10722 10720 10721 10721 10720 10719 10720 10717 10716 10713 10711 10709 10708 10706 10705 10704 10701 10697 10693 10689 10686 10682 10677 10673 10668
10697 10699 10701 10702 10702 10704 10706 10705 10707 10709 10708 10709 10708 10709 10706 10707 10708 10710 10711 10711 10711 10711 10712 10712 10712 10711 10710 10708 10706 10703 10701 10700 10698 10697 10696 10694 10689 10685 10681 10678 10674 10670 10665 10659
10685 10687 10688 10690 10692 10694 10697 10694 10695 10695 10695 10695 10697 10695 10696 10698 10699 10698 10700 10701 10701 10702 10701 10702 10703 10702 10701 10700 10697 10696 10693 10691 10690 10687 10686 10684 10681 10677 10673 10670 10666 10662 10657 10652
10672 10674 10675 10678 10681 10683 10685 10683 10682 10684 10685 10686 10685 10684 10684 10689 10689 10689 10690 10691 10692 10692 10692 10692 10692 10692 10692 10690 10689 10687 10685 10683 10682 10679 10677 10675 10672 10668 10665 10662 10658 10653 10649 10643
10662 10662 10663 10663 10667 10669 10671 10672 10671 10672 10677 10677 10676 10672 10673 10678 10680 10681 10681 10681 10682 10682 10682 10683 10683 10682 10681 10681 10680 10679 10678 10676 10674 10671 10669 10667 10663 10661 10659 10655 10650 10646 10641 10636
10648 10650 10653 10651 10654 10654 10657 10660 10658 10661 10665 10664 10664 10663 10664 10668 10671 10671 10672 10672 10673 10673 10673 10672 10672 10671 10671 10671 10671 10671 10670 10668 10665 10663 10661 10659 10656 10654 10651 10646 10642 10638 10633 10628
10634 10638 10641 10642 10643 10642 10644 10646 10646 10650 10651 10656 10656 10655 10655 10659 10662 10662 10662 10664 10665 10665 10665 10664 10662 10662 10662 10662 10662 10662 10661 10660 10658 10655 10653 10652 10650 10647 10643 10638 10634 10630 10625 10619
10618 10626 10627 10630 10632 10632 10631 10632 10632 10638 10641 10646 10645 10645 10644 10649 10652 10652 10654 10656 10657 10657 10657 10656 10655 10655 10654 10654 10653 10653 10652 10651 10649 10647 10646 10644 10642 10639 10635 10631 10627 10622 10617 10611
10602 10609 10611 10617 10616 10615 10618 10619 10621 10625 10631 10631 10635 10632 10633 10637 10642 10644 10645 10647 10649 10649 10649 10648 10647 10646 10646 10646 10645 10645 10645 10643 10641 10640 10638 10636 10633 10631 10627 10623 10619 10614 10609 10604
10586 10592 10594 10598 10600 10600 10603 10605 10608 10612 10616 10620 10620 10622 10617 10627 10633 10634 10636 10638 10640 10641 10641 10640 10640 10639 10639 10638 10638 10637 10637 10636 10634 10632 10630 10627 10625 10622 10619 10615 10611 10606 10601 10596
10568 10572 10576 10580 10581 10583 10586 10593 10595 10599 10601 10605 10607 10611 10603 10616 10623 10622 10626 10629 10630 10632 10632 10632 10631 10631 10630 10630 10630 10629 10628 10627 10626 10624 10622 10620 10617 10614 10611 10607 10603 10598 10592 10587
10549 10552 10556 10563 10560 10561 10573 10579 10580 10583 10586 10589 10595 10594 10596 10604 10610 10614 10617 10618 10620 10621 10622 10622 10622 10623 10622 10621 10621 10621 10620 10619 10617 10616 10614 10612 10609 10607 10603 10599 10595 10589 10583 10576
10530 10529 10532 10539 10537 10541 10562 10560 10563 10566 10570 10573 10578 10581 10584 10590 10598 10602 10602 10606 10610 10611 10613 10613 10614 10614 10614 10614 10613 10612 10611 10610 10609 10607 10605 10603 10601 10599 10595 10591 10586 10580 10574 10567
10504 10504 10509 10511 10517 10528 10538 10543 10545 10545 10554 10556 10564 10566 10571 10576 10584 10589 10589 10596 10599 10599 10602 10603 10604 10605 10606 10605 10605 10604 10603 10601 10600 10598 10596 10595 10593 10590 10585 10581 10576 10570 10564 10558
10475 10478 10482 10494 10498 10506 10519 10521 10528 10527 10541 10540 10543 10547 10557 10563 10569 10567 10578 10584 10584 10586 10590 10592 10594 10595 10596 10596 10596 10595 10594 10593 10591 10590 10588 10586 10584 10580 10576 10570 10565 10560 10554 10547
10450 10453 10462 10468 10475 10489 10492 10498 10503 10508 10523 10517 10523 10533 10543 10550 10555 10556 10563 10569 10571 10574 10578 10580 10582 10584 10585 10586 10586 10586 10585 10584 10583 10581 10579 10577 10574 10570 10565 10560 10555 10549 10544 10537
10427 10432 10440 10446 10453 10464 10472 10477 10484 10499 10500 10506 10513 10520 10529 10537 10542 10543 10548 10556 10558 10561 10564 10567 10570 10572 10573 10575 10576 10576 10576 10574 10573 10572 10569 10567 10563 10559 10555 10550 10544 10539 10534 10527
10405 10410 10418 10424 10431 10439 10449 10455 10465 10474 10479 10488 10496 10503 10511 10519 10525 10530 10534 10540 10545 10549 10552 10554 10557 10559 10561 10563 10564 10565 10565 10564 10563 10562 10560 10557 10553 10549 10544 10539 10534 10529 10523 10516
10385 10390 10398 10402 10410 10412 10428 10432 10441 10451 10459 10469 10477 10484 10492 10500 10509 10516 10519 10524 10531 10536 10540 10543 10545 10547 10549 10551 10552 10553 10554 10554 10553 10551 10548 10545 10542 10538 10533 10529 10524 10518 10511 10503
10363 10376 10376 10384 10384 10390 10399 10405 10420 10430 10440 10451 10461 10469 10475 10483 10490 10499 10505 10509 10513 10519 10525 10529 10532 10534 10536 10538 10540 10541 10542 10542 10541 10539 10537 10534 10530 10527 10522 10518 10512 10506 10500 10492
10344 10348 10346 10356 10359 10373 10375 10389 10400 10410 10420 10430 10441 10451 10458 10466 10474 10481 10487 10492 10497 10501 10508 10513 10517 10520 10523 10525 10526 10527 10528 10528 10528 10527 10524 10521 10518 10514 10510 10506 10501 10495 10488 10480